Plainview, TX

12:18 PM CDT on April 22, 2018 (GMT -0500)
Hale County

Weather History for KPVW - February, 2014

Change the Weather History Date:

Friday, February 7, 2014

  Actual Average Record
Temperature  
Mean Temperature 31 °F -  
Max Temperature 50 °F 49 °F 86 °F (1918)
Min Temperature 12 °F 25 °F -5 °F (1933)
Degree Days  
Heating Degree Days 34    
Moisture  
Dew Point 19 °F    
Average Humidity 72    
Maximum Humidity 90    
Minimum Humidity 42    
Precipitation  
Precipitation 0.00 in - - ()
Sea Level Pressure  
Sea Level Pressure 30.02 in    
Wind  
Wind Speed 10 mph (SSW)    
Max Wind Speed 18 mph    
Max Gust Speed 24 mph    
Visibility 10 miles    
Events Snow    
Averages and records for this station are not official NWS values.
T = Trace of Precipitation, MM = Missing Value Source: NWS Daily Summary

Daily Weather History Graph

Daily Weather History Graph

Search for Another Location

Airport or City:

Astronomy

Feb. 07, 2014 Rise Set
Actual Time 7:39 AM CST 6:23 PM CST
Civil Twilight 7:13 AM CST 6:49 PM CST
Nautical Twilight 6:43 AM CST 7:18 PM CST
Astronomical Twilight 6:14 AM CST 7:48 PM CST
Moon 12:38 PM CST (2/7) 1:55 AM CST (2/7)
Length of Visible Light 11h 35m
Length of Day
10h 43m
First Quarter, 59% of the Moon is Illuminated
Feb 7
First Quarter
Feb 14
Full
Feb 22
Last Quarter
Mar 1
New
Mar 8
First Quarter

Hourly Weather History & Observations

Time (CST) Temp. Windchill Dew Point Humidity Pressure Visibility Wind Dir Wind Speed Gust Speed Precip Events Conditions
12:15 AM 14.7 °F 3.8 °F 11.3 °F 86% 30.14 in 10.0 mi SSE 8.1 mph - N/A   Scattered Clouds
12:35 AM 13.6 °F 1.6 °F 10.0 °F 86% 30.13 in 10.0 mi South 9.2 mph - N/A   Mostly Cloudy
12:55 AM 13.8 °F 1.0 °F 10.4 °F 86% 30.13 in 10.0 mi South 10.4 mph - N/A   Overcast
1:15 AM 13.5 °F 0.5 °F 10.2 °F 87% 30.12 in 10.0 mi South 10.4 mph - N/A   Overcast
1:35 AM 12.6 °F -0.6 °F 9.5 °F 88% 30.12 in 10.0 mi South 10.4 mph - N/A   Overcast
1:55 AM 12.4 °F 0.9 °F 9.5 °F 88% 30.11 in 10.0 mi South 8.1 mph - N/A Snow Light Snow
2:15 AM 12.7 °F 0.4 °F 10.0 °F 89% 30.12 in 10.0 mi South 9.2 mph - N/A Snow Light Snow
2:35 AM 13.5 °F 2.2 °F 10.8 °F 89% 30.10 in 10.0 mi South 8.1 mph - N/A   Overcast
2:55 AM 12.4 °F 2.0 °F 9.5 °F 88% 30.10 in 10.0 mi South 6.9 mph - N/A   Overcast
3:15 AM 12.7 °F 1.4 °F 10.0 °F 89% 30.10 in 10.0 mi South 8.1 mph - N/A   Overcast
3:35 AM 14.0 °F 2.9 °F 11.1 °F 88% 30.10 in 10.0 mi South 8.1 mph - N/A Snow Light Snow
3:55 AM 13.5 °F 1.3 °F 10.6 °F 88% 30.09 in 10.0 mi South 9.2 mph - N/A   Overcast
4:15 AM 14.4 °F 3.3 °F 11.7 °F 89% 30.08 in 10.0 mi South 8.1 mph - N/A   Overcast
4:35 AM 14.2 °F 2.2 °F 11.5 °F 89% 30.08 in 10.0 mi South 9.2 mph - N/A   Overcast
4:55 AM 12.9 °F 1.6 °F 10.0 °F 88% 30.08 in 10.0 mi South 8.1 mph - N/A   Overcast
5:15 AM 14.0 °F 2.9 °F 11.3 °F 89% 30.09 in 10.0 mi SSW 8.1 mph - N/A   Overcast
5:35 AM 14.9 °F 4.0 °F 12.2 °F 89% 30.09 in 10.0 mi SSW 8.1 mph - N/A   Overcast
5:55 AM 14.9 °F 2.3 °F 12.2 °F 89% 30.09 in 10.0 mi SSW 10.4 mph - N/A   Overcast
6:15 AM 14.9 °F 2.3 °F 12.2 °F 89% 30.09 in 10.0 mi SSW 10.4 mph - N/A   Overcast
6:35 AM 14.9 °F 5.0 °F 12.2 °F 89% 30.06 in 10.0 mi SSW 6.9 mph - N/A   Overcast
6:55 AM 14.9 °F 5.0 °F 12.2 °F 89% 30.07 in 10.0 mi SW 6.9 mph - N/A   Overcast
7:15 AM 14.9 °F 4.0 °F 12.2 °F 89% 30.06 in 10.0 mi South 8.1 mph - N/A Snow Light Snow
7:35 AM 14.9 °F 4.0 °F 12.2 °F 89% 30.07 in 10.0 mi SSW 8.1 mph - N/A   Scattered Clouds
7:55 AM 15.3 °F 4.4 °F 12.7 °F 90% 30.06 in 10.0 mi SSW 8.1 mph - N/A   Scattered Clouds
8:15 AM 16.2 °F 5.5 °F 13.6 °F 90% 30.07 in 10.0 mi SSW 8.1 mph - N/A   Scattered Clouds
8:35 AM 17.4 °F 4.7 °F 14.9 °F 90% 30.07 in 10.0 mi SSW 11.5 mph - N/A   Scattered Clouds
8:55 AM 17.4 °F 5.4 °F 14.9 °F 90% 30.07 in 10.0 mi SSW 10.4 mph - N/A   Mostly Cloudy
9:15 AM 18.1 °F 5.6 °F 15.3 °F 88% 30.07 in 10.0 mi SSW 11.5 mph - N/A   Overcast
9:35 AM 19.9 °F 7.9 °F 15.3 °F 82% 30.08 in 10.0 mi SSW 11.5 mph - N/A   Mostly Cloudy
9:55 AM 20.7 °F 8.2 °F 15.3 °F 80% 30.07 in 10.0 mi SSW 12.7 mph - N/A   Scattered Clouds
10:15 AM 22.5 °F 10.5 °F 16.2 °F 77% 30.07 in 10.0 mi SSW 12.7 mph - N/A   Scattered Clouds
10:35 AM 23.2 °F 9.8 °F 15.8 °F 73% 30.07 in 10.0 mi SSW 16.1 mph 19.6 mph N/A   Clear
10:55 AM 25.3 °F 13.1 °F 17.1 °F 71% 30.06 in 10.0 mi SSW 15.0 mph 19.6 mph N/A   Clear
11:15 AM 27.7 °F 16.1 °F 18.0 °F 67% 30.05 in 10.0 mi SSW 15.0 mph 19.6 mph N/A   Clear
11:35 AM 29.8 °F 18.4 °F 19.8 °F 66% 30.05 in 10.0 mi SSW 16.1 mph 21.9 mph N/A   Clear
11:55 AM 30.0 °F 19.1 °F 19.0 °F 64% 30.04 in 10.0 mi SSW 15.0 mph 23.0 mph N/A   Clear
12:15 PM 32.2 °F 22.7 °F 20.3 °F 62% 30.04 in 10.0 mi SW 12.7 mph 19.6 mph N/A   Clear
12:35 PM 34.7 °F 25.5 °F 21.9 °F 60% 30.02 in 10.0 mi SW 13.8 mph 21.9 mph N/A   Clear
12:55 PM 34.7 °F 25.5 °F 20.7 °F 57% 30.01 in 10.0 mi SW 13.8 mph 24.2 mph N/A   Clear
1:15 PM 36.9 °F 27.1 °F 21.7 °F 54% 29.99 in 10.0 mi SW 17.3 mph 24.2 mph N/A   Clear
1:35 PM 37.4 °F 28.2 °F 21.0 °F 52% 29.98 in 10.0 mi SW 16.1 mph - N/A   Clear
1:55 PM 37.6 °F 28.8 °F 21.2 °F 52% 29.98 in 10.0 mi SW 15.0 mph 21.9 mph N/A   Clear
2:15 PM 39.7 °F 31.5 °F 22.1 °F 49% 29.96 in 10.0 mi SW 15.0 mph 20.7 mph N/A   Clear
2:35 PM 40.6 °F 32.3 °F 22.3 °F 48% 29.95 in 10.0 mi SW 16.1 mph 19.6 mph N/A   Clear
2:55 PM 42.3 °F 34.4 °F 23.0 °F 47% 29.95 in 10.0 mi SW 16.1 mph 20.7 mph N/A   Clear
3:15 PM 43.3 °F 35.8 °F 23.0 °F 45% 29.93 in 10.0 mi SW 16.1 mph 24.2 mph N/A   Clear
3:35 PM 44.1 °F 36.2 °F 23.2 °F 44% 29.92 in 10.0 mi SSW 18.4 mph 21.9 mph N/A   Clear
3:55 PM 45.5 °F 38.3 °F 24.1 °F 43% 29.91 in 10.0 mi SSW 17.3 mph 23.0 mph N/A   Clear
4:15 PM 46.4 °F 39.2 °F 25.2 °F 43% 29.91 in 10.0 mi SSW 18.4 mph - N/A   Clear
4:35 PM 47.3 °F - 25.2 °F 42% 29.91 in 10.0 mi SSW 17.3 mph 21.9 mph N/A   Clear
4:55 PM 48.9 °F - 26.6 °F 42% 29.91 in 10.0 mi SSW 18.4 mph 21.9 mph N/A   Clear
5:15 PM 50.0 °F - 27.5 °F 42% 29.90 in 10.0 mi SSW 16.1 mph 21.9 mph N/A   Clear
5:35 PM 47.3 °F - 26.1 °F 44% 29.91 in 10.0 mi SSW 16.1 mph - N/A   Clear
5:55 PM 46.9 °F - 26.8 °F 45% 29.92 in 10.0 mi SSW 12.7 mph 19.6 mph N/A   Clear
6:15 PM 43.9 °F 37.9 °F 25.3 °F 48% 29.92 in 10.0 mi SSW 11.5 mph - N/A   Clear
6:35 PM 42.3 °F 35.1 °F 25.7 °F 52% 29.92 in 10.0 mi SSW 13.8 mph - N/A   Clear
6:55 PM 41.5 °F 36.4 °F 25.9 °F 54% 29.93 in 10.0 mi SSW 8.1 mph - N/A   Clear
7:15 PM 39.7 °F 33.2 °F 26.4 °F 59% 29.93 in 10.0 mi SSW 10.4 mph - N/A   Clear
7:35 PM 37.6 °F 31.6 °F 25.7 °F 62% 29.94 in 10.0 mi SSW 8.1 mph - N/A   Clear
7:55 PM 37.4 °F 30.8 °F 26.2 °F 64% 29.94 in 10.0 mi SSW 9.2 mph - N/A   Clear
8:15 PM 37.4 °F 30.8 °F 26.6 °F 65% 29.95 in 10.0 mi SSW 9.2 mph - N/A   Clear
8:35 PM 35.1 °F 30.1 °F 25.7 °F 69% 29.95 in 10.0 mi South 5.8 mph - N/A   Clear
8:55 PM 34.7 °F 28.8 °F 25.7 °F 70% 29.95 in 10.0 mi South 6.9 mph - N/A   Clear
9:15 PM 34.7 °F 27.5 °F 26.8 °F 73% 29.95 in 10.0 mi South 9.2 mph - N/A   Clear
9:35 PM 30.2 °F 23.4 °F 23.7 °F 77% 29.95 in 10.0 mi SE 6.9 mph - N/A   Clear
9:55 PM 30.0 °F 25.2 °F 24.4 °F 80% 29.96 in 10.0 mi South 4.6 mph - N/A   Clear
10:15 PM 30.0 °F 24.1 °F 25.0 °F 82% 29.96 in 10.0 mi South 5.8 mph - N/A   Clear
10:35 PM 27.0 °F 20.5 °F 23.0 °F 85% 29.96 in 10.0 mi SSE 5.8 mph - N/A   Clear
10:55 PM 30.0 °F 22.4 °F 24.6 °F 80% 29.96 in 10.0 mi WSW 8.1 mph - N/A   Clear
11:15 PM 37.4 °F 29.3 °F 27.5 °F 67% 29.96 in 10.0 mi WSW 12.7 mph - N/A   Clear
11:35 PM 36.7 °F 28.0 °F 27.0 °F 68% 29.96 in 10.0 mi WSW 13.8 mph - N/A   Clear
11:55 PM 34.7 °F 26.4 °F 26.6 °F 72% 29.97 in 10.0 mi WSW 11.5 mph - N/A   Clear